Regional Weather Roundup
Issued by NWS

Home | Current Version | Previous Version | Graphics & Text | Print | Product List | Glossary On
Versions: 1 2 3 4 5 6 7 8 9 10 11 12 13 14 15 16 17 18 19 20 21 22 23 24 25 26 27 28 29 30 31 32 33 34 35 36 37 38 39 40 41 42 43 44 45 46 47 48 49 50
000
ASUS43 KTOP 291959
RWRKS

WEATHER ROUNDUP FOR KANSAS
NATIONAL WEATHER SERVICE GOODLAND KS
300 PM CDT MON MAY 29 2017

NOTE:  "FAIR" INDICATES FEW OR NO CLOUDS BELOW 12,000 FEET WITH NO
SIGNIFICANT WEATHER AND/OR OBSTRUCTIONS TO VISIBILITY.

KSZ001>006-013>018-027>032-041>047-292100-
NORTHWEST KANSAS

CITY           SKY/WX    TMP DP  RH WIND       PRES   REMARKS
GOODLAND       PTSUNNY   71  44  37 N8        30.17F
HAYS           MOSUNNY   78  47  33 N10G16    30.09F
HILL CITY      MOSUNNY   79  40  24 NW10      30.11F
RUSSELL        SUNNY     76  47  35 NW13      30.07F
$$

KSZ061>065-074>080-084>089-292100-
SOUTHWEST KANSAS

CITY           SKY/WX    TMP DP  RH WIND       PRES   REMARKS
DODGE CITY     MOSUNNY   79  48  33 N12       30.11F
ELKHART          N/A     76  43  31 MISG        N/A
GARDEN CITY    SUNNY     78  43  28 NW10      30.13F
GREAT BEND     SUNNY     78  53  41 N10G20    30.09S
LIBERAL        SUNNY     79  41  25 CALM      30.13F
$$

KSZ066>073-081>083-090>101-292100-
SOUTHEAST KANSAS

CITY           SKY/WX    TMP DP  RH WIND       PRES   REMARKS
CHANUTE        SUNNY     84  49  29 W9        30.01F
COFFEYVILLE    MOSUNNY   86  56  35 N12       30.00F
HUTCHINSON     MOSUNNY   84  47  27 NW16      30.05F
MEDICINE LODGE   N/A     83  48  29 VRB6      30.06F
NEWTON         SUNNY     84  46  26 W8        30.05F
PARSONS        MOSUNNY   86  50  28 NW8       30.02F
WICHITA INTL   MOSUNNY   84  48  28 NW7G17    30.03F
WICHITA JABRA  SUNNY     84  47  27 NW12G20   30.03F
WINFIELD       SUNNY     85  51  31 N6        30.04F
$$

KSZ007>012-019>026-033>040-048>060-102>105-292100-
NORTHEAST KANSAS

CITY           SKY/WX    TMP DP  RH WIND       PRES   REMARKS
CONCORDIA      MOSUNNY   76  50  40 NW13      30.05F
EMPORIA        SUNNY     81  54  39 N9        30.02F
LAWRENCE       SUNNY     80  49  33 NW7       30.00F
MANHATTAN      MOSUNNY   81  52  36 NW5       30.02F
OLATHE IND     SUNNY     78  52  40 NW6G17    30.01S
OLATHE EXE     SUNNY     79  49  34 N9        30.00F
SALINA         SUNNY     82  53  36 NW12      30.05F
TOPEKA BILLARD SUNNY     80  53  39 N7        30.01S
TOPEKA FORBES  SUNNY     82  52  35 W7        30.01F
$$



USA.gov is the U.S. government's official web portal to all federal, state and local government web resources and services.